Year,Month,Day,Hour,Minute,Value (Times are PST for temperature in C)
2009,03,23,00,00,4.30
2009,03,23,00,01,4.40
2009,03,23,00,02,4.40
2009,03,23,00,03,4.40
2009,03,23,00,04,4.40
2009,03,23,00,05,4.40
2009,03,23,00,06,4.40
2009,03,23,00,07,4.50
2009,03,23,00,08,4.50
2009,03,23,00,09,4.50
2009,03,23,00,10,4.50
2009,03,23,00,11,4.50
2009,03,23,00,12,4.40
2009,03,23,00,13,4.40
2009,03,23,00,14,4.40
2009,03,23,00,15,4.40
2009,03,23,00,16,4.40
2009,03,23,00,17,4.40
2009,03,23,00,18,4.40
2009,03,23,00,19,4.40
2009,03,23,00,20,4.30
2009,03,23,00,21,4.40
2009,03,23,00,22,4.30
2009,03,23,00,23,4.40
2009,03,23,00,24,4.40
2009,03,23,00,25,4.40
2009,03,23,00,26,4.40
2009,03,23,00,27,4.40
2009,03,23,00,28,4.40
2009,03,23,00,29,4.50
2009,03,23,00,30,4.50
2009,03,23,00,31,4.50
2009,03,23,00,32,4.50
2009,03,23,00,33,4.50
2009,03,23,00,34,4.50
2009,03,23,00,35,4.50
2009,03,23,00,36,4.40
2009,03,23,00,37,4.40
2009,03,23,00,38,4.40
2009,03,23,00,39,4.40
2009,03,23,00,40,4.40
2009,03,23,00,41,4.40
2009,03,23,00,42,4.40
2009,03,23,00,43,4.40
2009,03,23,00,44,4.50
2009,03,23,00,45,4.50
2009,03,23,00,46,4.50
2009,03,23,00,47,4.50
2009,03,23,00,48,4.50
2009,03,23,00,49,4.50
2009,03,23,00,50,4.40
2009,03,23,00,51,4.40
2009,03,23,00,52,4.40
2009,03,23,00,53,4.40
2009,03,23,00,54,4.40
2009,03,23,00,55,4.50
2009,03,23,00,56,4.50
2009,03,23,00,57,4.40
2009,03,23,00,58,4.40
2009,03,23,00,59,4.40
2009,03,23,01,00,4.40
2009,03,23,01,01,4.40
2009,03,23,01,02,4.40
2009,03,23,01,03,4.40
2009,03,23,01,04,4.40
2009,03,23,01,05,4.40
2009,03,23,01,06,4.40
2009,03,23,01,07,4.40
2009,03,23,01,08,4.40
2009,03,23,01,09,4.40
2009,03,23,01,10,4.40
2009,03,23,01,11,4.40
2009,03,23,01,12,4.40
2009,03,23,01,13,4.40
2009,03,23,01,14,4.40
2009,03,23,01,15,4.40
2009,03,23,01,16,4.40
2009,03,23,01,17,4.40
2009,03,23,01,18,4.40
2009,03,23,01,19,4.50
2009,03,23,01,20,4.50
2009,03,23,01,21,4.40
2009,03,23,01,22,4.40
2009,03,23,01,23,4.40
2009,03,23,01,24,4.40
2009,03,23,01,25,4.40
2009,03,23,01,26,4.40
2009,03,23,01,27,4.40
2009,03,23,01,28,4.40
2009,03,23,01,29,4.40
2009,03,23,01,30,4.50
2009,03,23,01,31,4.50
2009,03,23,01,32,4.40
2009,03,23,01,33,4.40
2009,03,23,01,34,4.40
2009,03,23,01,35,4.40
2009,03,23,01,36,4.40
2009,03,23,01,37,4.40
2009,03,23,01,38,4.40
2009,03,23,01,39,4.40
2009,03,23,01,40,4.40
2009,03,23,01,41,4.50
2009,03,23,01,42,4.50
2009,03,23,01,43,4.50
2009,03,23,01,44,4.50
2009,03,23,01,45,4.50
2009,03,23,01,46,4.60
2009,03,23,01,47,4.60
2009,03,23,01,48,4.60
2009,03,23,01,49,4.60
2009,03,23,01,50,4.60
2009,03,23,01,51,4.60
2009,03,23,01,52,4.60
2009,03,23,01,53,4.60
2009,03,23,01,54,4.60
2009,03,23,01,55,4.60
2009,03,23,01,56,4.60
2009,03,23,01,57,4.60
2009,03,23,01,58,4.60
2009,03,23,01,59,4.60
2009,03,23,02,00,4.70
2009,03,23,02,01,4.70
2009,03,23,02,02,4.70
2009,03,23,02,03,4.60
2009,03,23,02,04,4.60
2009,03,23,02,05,4.60
2009,03,23,02,06,4.50
2009,03,23,02,07,4.50
2009,03,23,02,08,4.50
2009,03,23,02,09,4.50
2009,03,23,02,10,4.50
2009,03,23,02,11,4.50
2009,03,23,02,12,4.50
2009,03,23,02,13,4.50
2009,03,23,02,14,4.40
2009,03,23,02,15,4.50
2009,03,23,02,16,4.50
2009,03,23,02,17,4.50
2009,03,23,02,18,4.50
2009,03,23,02,19,4.50
2009,03,23,02,20,4.50
2009,03,23,02,21,4.50
2009,03,23,02,22,4.50
2009,03,23,02,23,4.40
2009,03,23,02,24,4.50
2009,03,23,02,25,4.50
2009,03,23,02,26,4.50
2009,03,23,02,27,4.50
2009,03,23,02,28,4.50
2009,03,23,02,29,4.50
2009,03,23,02,30,4.40
2009,03,23,02,31,4.40
2009,03,23,02,32,4.50
2009,03,23,02,33,4.50
2009,03,23,02,34,4.50
2009,03,23,02,35,4.50
2009,03,23,02,36,4.50
2009,03,23,02,37,4.50
2009,03,23,02,38,4.50
2009,03,23,02,39,4.50
2009,03,23,02,40,4.60
2009,03,23,02,41,4.60
2009,03,23,02,42,4.60
2009,03,23,02,43,4.60
2009,03,23,02,44,4.60
2009,03,23,02,45,4.60
2009,03,23,02,46,4.60
2009,03,23,02,47,4.60
2009,03,23,02,48,4.60
2009,03,23,02,49,4.60
2009,03,23,02,50,4.60
2009,03,23,02,51,4.60
2009,03,23,02,52,4.60
2009,03,23,02,53,4.70
2009,03,23,02,54,4.70
2009,03,23,02,55,4.70
2009,03,23,02,56,4.70
2009,03,23,02,57,4.70
2009,03,23,02,58,4.70
2009,03,23,02,59,4.70
2009,03,23,03,00,4.70
2009,03,23,03,01,4.70
2009,03,23,03,02,4.70
2009,03,23,03,03,4.70
2009,03,23,03,04,4.70
2009,03,23,03,05,4.70
2009,03,23,03,06,4.70
2009,03,23,03,07,4.80
2009,03,23,03,08,4.80
2009,03,23,03,09,4.80
2009,03,23,03,10,4.70
2009,03,23,03,11,4.70
2009,03,23,03,12,4.70
2009,03,23,03,13,4.70
2009,03,23,03,14,4.70
2009,03,23,03,15,4.70
2009,03,23,03,16,4.70
2009,03,23,03,17,4.70
2009,03,23,03,18,4.70
2009,03,23,03,19,4.70
2009,03,23,03,20,4.70
2009,03,23,03,21,4.70
2009,03,23,03,22,4.70
2009,03,23,03,23,4.70
2009,03,23,03,24,4.70
2009,03,23,03,25,4.80
2009,03,23,03,26,4.70
2009,03,23,03,27,4.70
2009,03,23,03,28,4.70
2009,03,23,03,29,4.70
2009,03,23,03,30,4.70
2009,03,23,03,31,4.70
2009,03,23,03,32,4.70
2009,03,23,03,33,4.70
2009,03,23,03,34,4.70
2009,03,23,03,35,4.70
2009,03,23,03,36,4.70
2009,03,23,03,37,4.70
2009,03,23,03,38,4.70
2009,03,23,03,39,4.70
2009,03,23,03,40,4.60
2009,03,23,03,41,4.60
2009,03,23,03,42,4.60
2009,03,23,03,43,4.60
2009,03,23,03,44,4.60
2009,03,23,03,45,4.60
2009,03,23,03,46,4.60
2009,03,23,03,47,4.50
2009,03,23,03,48,4.50
2009,03,23,03,49,4.50
2009,03,23,03,50,4.50
2009,03,23,03,51,4.50
2009,03,23,03,52,4.40
2009,03,23,03,53,4.40
2009,03,23,03,54,4.40
2009,03,23,03,55,4.40
2009,03,23,03,56,4.40
2009,03,23,03,57,4.40
2009,03,23,03,58,4.30
2009,03,23,03,59,4.30
2009,03,23,04,00,4.30
2009,03,23,04,01,4.30
2009,03,23,04,02,4.30
2009,03,23,04,03,4.30
2009,03,23,04,04,4.30
2009,03,23,04,05,4.30
2009,03,23,04,06,4.30
2009,03,23,04,07,4.30
2009,03,23,04,08,4.30
2009,03,23,04,09,4.30
2009,03,23,04,10,4.30
2009,03,23,04,11,4.30
2009,03,23,04,12,4.30
2009,03,23,04,13,4.30
2009,03,23,04,14,4.30
2009,03,23,04,15,4.30
2009,03,23,04,16,4.30
2009,03,23,04,17,4.30
2009,03,23,04,18,4.30
2009,03,23,04,19,4.30
2009,03,23,04,20,4.30
2009,03,23,04,21,4.20
2009,03,23,04,22,4.20
2009,03,23,04,23,4.20
2009,03,23,04,24,4.20
2009,03,23,04,25,4.20
2009,03,23,04,26,4.10
2009,03,23,04,27,4.10
2009,03,23,04,28,4.10
2009,03,23,04,29,4.10
2009,03,23,04,30,4.10
2009,03,23,04,31,4.10
2009,03,23,04,32,4.10
2009,03,23,04,33,4.10
2009,03,23,04,34,4.10
2009,03,23,04,35,4.10
2009,03,23,04,36,4.10
2009,03,23,04,37,4.10
2009,03,23,04,38,4.10
2009,03,23,04,39,4.10
2009,03,23,04,40,4.10
2009,03,23,04,41,4.10
2009,03,23,04,42,4.10
2009,03,23,04,43,4.10
2009,03,23,04,44,4.10
2009,03,23,04,45,4.10
2009,03,23,04,46,4.10
2009,03,23,04,47,4.10
2009,03,23,04,48,4.10
2009,03,23,04,49,4.10
2009,03,23,04,50,4.20
2009,03,23,04,51,4.20
2009,03,23,04,52,4.20
2009,03,23,04,53,4.20
2009,03,23,04,54,4.20
2009,03,23,04,55,4.20
2009,03,23,04,56,4.20
2009,03,23,04,57,4.20
2009,03,23,04,58,4.20
2009,03,23,04,59,4.20
2009,03,23,05,00,4.20
2009,03,23,05,01,4.20
2009,03,23,05,02,4.20
2009,03,23,05,03,4.20
2009,03,23,05,04,4.20
2009,03,23,05,05,4.20
2009,03,23,05,06,4.20
2009,03,23,05,07,4.20
2009,03,23,05,08,4.20
2009,03,23,05,09,4.20
2009,03,23,05,10,4.20
2009,03,23,05,11,4.20
2009,03,23,05,12,4.20
2009,03,23,05,13,4.20
2009,03,23,05,14,4.20
2009,03,23,05,15,4.20
2009,03,23,05,16,4.20
2009,03,23,05,17,4.20
2009,03,23,05,18,4.20
2009,03,23,05,19,4.20
2009,03,23,05,20,4.20
2009,03,23,05,21,4.10
2009,03,23,05,22,4.10
2009,03,23,05,23,4.10
2009,03,23,05,24,4.20
2009,03,23,05,25,4.20
2009,03,23,05,26,4.20
2009,03,23,05,27,4.10
2009,03,23,05,28,4.10
2009,03,23,05,29,4.10
2009,03,23,05,30,4.10
2009,03,23,05,31,4.10
2009,03,23,05,32,4.10
2009,03,23,05,33,4.00
2009,03,23,05,34,4.00
2009,03,23,05,35,4.00
2009,03,23,05,36,4.00
2009,03,23,05,37,3.90
2009,03,23,05,38,3.90
2009,03,23,05,39,3.90
2009,03,23,05,40,3.90
2009,03,23,05,41,3.90
2009,03,23,05,42,3.90
2009,03,23,05,43,3.90
2009,03,23,05,44,3.90
2009,03,23,05,45,3.90
2009,03,23,05,46,3.90
2009,03,23,05,47,3.90
2009,03,23,05,48,3.90
2009,03,23,05,49,3.90
2009,03,23,05,50,3.90
2009,03,23,05,51,3.90
2009,03,23,05,52,3.90
2009,03,23,05,53,3.90
2009,03,23,05,54,3.90
2009,03,23,05,55,3.90
2009,03,23,05,56,3.90
2009,03,23,05,57,3.90
2009,03,23,05,58,3.90
2009,03,23,05,59,3.90
2009,03,23,06,00,4.00
2009,03,23,06,01,4.00
2009,03,23,06,02,4.00
2009,03,23,06,03,4.00
2009,03,23,06,04,4.00
2009,03,23,06,05,4.00
2009,03,23,06,06,4.00
2009,03,23,06,07,4.00
2009,03,23,06,08,3.90
2009,03,23,06,09,3.90
2009,03,23,06,10,3.90
2009,03,23,06,11,3.90
2009,03,23,06,12,3.80
2009,03,23,06,13,3.80
2009,03,23,06,14,3.70
2009,03,23,06,15,3.70
2009,03,23,06,16,3.70
2009,03,23,06,17,3.80
2009,03,23,06,18,3.80
2009,03,23,06,19,3.90
2009,03,23,06,20,3.90
2009,03,23,06,21,3.90
2009,03,23,06,22,3.90
2009,03,23,06,23,3.90
2009,03,23,06,24,3.90
2009,03,23,06,25,3.90
2009,03,23,06,26,3.90
2009,03,23,06,27,3.90
2009,03,23,06,28,3.90
2009,03,23,06,29,3.80
2009,03,23,06,30,3.80
2009,03,23,06,31,3.70
2009,03,23,06,32,3.60
2009,03,23,06,33,3.50
2009,03,23,06,34,3.50
2009,03,23,06,35,3.40
2009,03,23,06,36,3.40
2009,03,23,06,37,3.40
2009,03,23,06,38,3.40
2009,03,23,06,39,3.40
2009,03,23,06,40,3.40
2009,03,23,06,41,3.40
2009,03,23,06,42,3.40
2009,03,23,06,43,3.40
2009,03,23,06,44,3.40
2009,03,23,06,45,3.40
2009,03,23,06,46,3.40
2009,03,23,06,47,3.40
2009,03,23,06,48,3.30
2009,03,23,06,49,3.30
2009,03,23,06,50,3.30
2009,03,23,06,51,3.30
2009,03,23,06,52,3.20
2009,03,23,06,53,3.20
2009,03,23,06,54,3.10
2009,03,23,06,55,3.10
2009,03,23,06,56,3.00
2009,03,23,06,57,3.00
2009,03,23,06,58,2.90
2009,03,23,06,59,2.90
2009,03,23,07,00,2.80
2009,03,23,07,01,2.80
2009,03,23,07,02,2.70
2009,03,23,07,03,2.60
2009,03,23,07,04,2.50
2009,03,23,07,05,2.50
2009,03,23,07,06,2.40
2009,03,23,07,07,2.30
2009,03,23,07,08,2.30
2009,03,23,07,09,2.30
2009,03,23,07,10,2.30
2009,03,23,07,11,2.30
2009,03,23,07,12,2.20
2009,03,23,07,13,2.20
2009,03,23,07,14,2.20
2009,03,23,07,15,2.20
2009,03,23,07,16,2.20
2009,03,23,07,17,2.20
2009,03,23,07,18,2.20
2009,03,23,07,19,2.30
2009,03,23,07,20,2.30
2009,03,23,07,21,2.30
2009,03,23,07,22,2.30
2009,03,23,07,23,2.30
2009,03,23,07,24,2.30
2009,03,23,07,25,2.30
2009,03,23,07,26,2.20
2009,03,23,07,27,2.20
2009,03,23,07,28,2.20
2009,03,23,07,29,2.20
2009,03,23,07,30,2.20
2009,03,23,07,31,2.20
2009,03,23,07,32,2.20
2009,03,23,07,33,2.10
2009,03,23,07,34,2.10
2009,03,23,07,35,2.10
2009,03,23,07,36,2.10
2009,03,23,07,37,2.10
2009,03,23,07,38,2.10
2009,03,23,07,39,2.00
2009,03,23,07,40,2.00
2009,03,23,07,41,2.00
2009,03,23,07,42,2.00
2009,03,23,07,43,2.00
2009,03,23,07,44,2.00
2009,03,23,07,45,2.00
2009,03,23,07,46,2.00
2009,03,23,07,47,2.00
2009,03,23,07,48,2.00
2009,03,23,07,49,2.00
2009,03,23,07,50,2.00
2009,03,23,07,51,2.00
2009,03,23,07,52,1.90
2009,03,23,07,53,1.90
2009,03,23,07,54,1.90
2009,03,23,07,55,1.90
2009,03,23,07,56,1.90
2009,03,23,07,57,1.90
2009,03,23,07,58,1.90
2009,03,23,07,59,1.90
2009,03,23,08,00,1.90
2009,03,23,08,01,2.00
2009,03,23,08,02,2.00
2009,03,23,08,03,2.00
2009,03,23,08,04,2.10
2009,03,23,08,05,2.10
2009,03,23,08,06,2.20
2009,03,23,08,07,2.20
2009,03,23,08,08,2.30
2009,03,23,08,09,2.30
2009,03,23,08,10,2.40
2009,03,23,08,11,2.50
2009,03,23,08,12,2.50
2009,03,23,08,13,2.60
2009,03,23,08,14,2.60
2009,03,23,08,15,2.60
2009,03,23,08,16,2.60
2009,03,23,08,17,2.60
2009,03,23,08,18,2.70
2009,03,23,08,19,2.70
2009,03,23,08,20,2.70
2009,03,23,08,21,2.70
2009,03,23,08,22,2.70
2009,03,23,08,23,2.70
2009,03,23,08,24,2.70
2009,03,23,08,25,2.70
2009,03,23,08,26,2.80
2009,03,23,08,27,2.80
2009,03,23,08,28,2.80
2009,03,23,08,29,2.80
2009,03,23,08,30,2.80
2009,03,23,08,31,2.90
2009,03,23,08,32,2.90
2009,03,23,08,33,2.90
2009,03,23,08,34,3.00
2009,03,23,08,35,3.10
2009,03,23,08,36,3.10
2009,03,23,08,37,3.10
2009,03,23,08,38,3.10
2009,03,23,08,39,3.20
2009,03,23,08,40,3.20
2009,03,23,08,41,3.20
2009,03,23,08,42,3.30
2009,03,23,08,43,3.30
2009,03,23,08,44,3.30
2009,03,23,08,45,3.30
2009,03,23,08,46,3.40
2009,03,23,08,47,3.40
2009,03,23,08,48,3.40
2009,03,23,08,49,3.40
2009,03,23,08,50,3.40
2009,03,23,08,51,3.40
2009,03,23,08,52,3.40
2009,03,23,08,53,3.40
2009,03,23,08,54,3.50
2009,03,23,08,55,3.50
2009,03,23,08,56,3.60
2009,03,23,08,57,3.70
2009,03,23,08,58,3.90
2009,03,23,08,59,4.00
2009,03,23,09,00,4.10
2009,03,23,09,01,4.20
2009,03,23,09,02,4.30
2009,03,23,09,03,4.30
2009,03,23,09,04,4.40
2009,03,23,09,05,4.40
2009,03,23,09,06,4.50
2009,03,23,09,07,4.50
2009,03,23,09,08,4.50
2009,03,23,09,09,4.60
2009,03,23,09,10,4.60
2009,03,23,09,11,4.60
2009,03,23,09,12,4.60
2009,03,23,09,13,4.60
2009,03,23,09,14,4.60
2009,03,23,09,15,4.70
2009,03,23,09,16,4.70
2009,03,23,09,17,4.70
2009,03,23,09,18,4.70
2009,03,23,09,19,4.70
2009,03,23,09,20,4.70
2009,03,23,09,21,4.70
2009,03,23,09,22,4.70
2009,03,23,09,23,4.70
2009,03,23,09,24,4.70
2009,03,23,09,25,4.80
2009,03,23,09,26,4.80
2009,03,23,09,27,4.80
2009,03,23,09,28,4.80
2009,03,23,09,29,4.80
2009,03,23,09,30,4.80
2009,03,23,09,31,4.80
2009,03,23,09,32,4.80
2009,03,23,09,33,4.90
2009,03,23,09,34,4.90
2009,03,23,09,35,4.80
2009,03,23,09,36,4.80
2009,03,23,09,37,4.80
2009,03,23,09,38,4.80
2009,03,23,09,39,4.80
2009,03,23,09,40,4.80
2009,03,23,09,41,4.80
2009,03,23,09,42,4.70
2009,03,23,09,43,4.70
2009,03,23,09,44,4.70
2009,03,23,09,45,4.70
2009,03,23,09,46,4.60
2009,03,23,09,47,4.60
2009,03,23,09,48,4.60
2009,03,23,09,49,4.50
2009,03,23,09,50,4.50
2009,03,23,09,51,4.50
2009,03,23,09,52,4.50
2009,03,23,09,53,4.40
2009,03,23,09,54,4.40
2009,03,23,09,55,4.40
2009,03,23,09,56,4.40
2009,03,23,09,57,4.40
2009,03,23,09,58,4.40
2009,03,23,09,59,4.40
2009,03,23,10,00,4.40
2009,03,23,10,01,4.40
2009,03,23,10,02,4.30
2009,03,23,10,03,4.30
2009,03,23,10,04,4.30
2009,03,23,10,05,4.30
2009,03,23,10,06,4.30
2009,03,23,10,07,4.30
2009,03,23,10,08,4.30
2009,03,23,10,09,4.30
2009,03,23,10,10,4.20
2009,03,23,10,11,4.30
2009,03,23,10,12,4.30
2009,03,23,10,13,4.20
2009,03,23,10,14,4.20
2009,03,23,10,15,4.20
2009,03,23,10,16,4.30
2009,03,23,10,17,4.30
2009,03,23,10,18,4.30
2009,03,23,10,19,4.30
2009,03,23,10,20,4.30
2009,03,23,10,21,4.30
2009,03,23,10,22,4.30
2009,03,23,10,23,4.30
2009,03,23,10,24,4.30
2009,03,23,10,25,4.30
2009,03,23,10,26,4.30
2009,03,23,10,27,4.30
2009,03,23,10,28,4.30
2009,03,23,10,29,4.30
2009,03,23,10,30,4.20
2009,03,23,10,31,4.20
2009,03,23,10,32,4.20
2009,03,23,10,33,4.20
2009,03,23,10,34,4.20
2009,03,23,10,35,4.20
2009,03,23,10,36,4.20
2009,03,23,10,37,4.20
2009,03,23,10,38,4.20
2009,03,23,10,39,4.20
2009,03,23,10,40,4.20
2009,03,23,10,41,4.20
2009,03,23,10,42,4.20
2009,03,23,10,43,4.20
2009,03,23,10,44,4.20
2009,03,23,10,45,4.20
2009,03,23,10,46,4.20
2009,03,23,10,47,4.20
2009,03,23,10,48,4.20
2009,03,23,10,49,4.20
2009,03,23,10,50,4.20
2009,03,23,10,51,4.20
2009,03,23,10,52,4.20
2009,03,23,10,53,4.30
2009,03,23,10,54,4.30
2009,03,23,10,55,4.30
2009,03,23,10,56,4.30
2009,03,23,10,57,4.30
2009,03,23,10,58,4.30
2009,03,23,10,59,4.30
2009,03,23,11,00,4.20
2009,03,23,11,01,4.20
2009,03,23,11,02,4.20
2009,03,23,11,03,4.20
2009,03,23,11,04,4.20
2009,03,23,11,05,4.20
2009,03,23,11,06,4.20
2009,03,23,11,07,4.20
2009,03,23,11,08,4.30
2009,03,23,11,09,4.30
2009,03,23,11,10,4.30
2009,03,23,11,11,4.20
2009,03,23,11,12,4.20
2009,03,23,11,13,4.20
2009,03,23,11,14,4.20
2009,03,23,11,15,4.20
2009,03,23,11,16,4.30
2009,03,23,11,17,4.30
2009,03,23,11,18,4.30
2009,03,23,11,19,4.40
2009,03,23,11,20,4.40
2009,03,23,11,21,4.40
2009,03,23,11,22,4.50
2009,03,23,11,23,4.50
2009,03,23,11,24,4.50
2009,03,23,11,25,4.60
2009,03,23,11,26,4.60
2009,03,23,11,27,4.60
2009,03,23,11,28,4.70
2009,03,23,11,29,4.70
2009,03,23,11,30,4.70
2009,03,23,11,31,4.70
2009,03,23,11,32,4.70
2009,03,23,11,33,4.70
2009,03,23,11,34,4.70
2009,03,23,11,35,4.70
2009,03,23,11,36,4.70
2009,03,23,11,37,4.70
2009,03,23,11,38,4.70
2009,03,23,11,39,4.80
2009,03,23,11,40,4.80
2009,03,23,11,41,4.80
2009,03,23,11,42,4.80
2009,03,23,11,43,4.90
2009,03,23,11,44,4.90
2009,03,23,11,45,4.90
2009,03,23,11,46,5.00
2009,03,23,11,47,5.00
2009,03,23,11,48,5.00
2009,03,23,11,49,5.10
2009,03,23,11,50,5.10
2009,03,23,11,51,5.10
2009,03,23,11,52,5.10
2009,03,23,11,53,5.10
2009,03,23,11,54,5.10
2009,03,23,11,55,5.10
2009,03,23,11,56,5.10
2009,03,23,11,57,5.20
2009,03,23,11,58,5.10
2009,03,23,11,59,5.10
2009,03,23,12,00,5.10
2009,03,23,12,01,5.10
2009,03,23,12,02,5.10
2009,03,23,12,03,5.20
2009,03,23,12,04,5.20
2009,03,23,12,05,5.30
2009,03,23,12,06,5.30
2009,03,23,12,07,5.30
2009,03,23,12,08,5.30
2009,03,23,12,09,5.40
2009,03,23,12,10,5.40
2009,03,23,12,11,5.40
2009,03,23,12,12,5.40
2009,03,23,12,13,5.40
2009,03,23,12,14,5.40
2009,03,23,12,15,5.40
2009,03,23,12,16,5.30
2009,03,23,12,17,5.30
2009,03,23,12,18,5.30
2009,03,23,12,19,5.40
2009,03,23,12,20,5.40
2009,03,23,12,21,5.40
2009,03,23,12,22,5.30
2009,03,23,12,23,5.30
2009,03,23,12,24,5.30
2009,03,23,12,25,5.30
2009,03,23,12,26,5.30
2009,03,23,12,27,5.30
2009,03,23,12,28,5.30
2009,03,23,12,29,5.30
2009,03,23,12,30,5.30
2009,03,23,12,31,5.30
2009,03,23,12,32,5.30
2009,03,23,12,33,5.30
2009,03,23,12,34,5.30
2009,03,23,12,35,5.30
2009,03,23,12,36,5.30
2009,03,23,12,37,5.30
2009,03,23,12,38,5.30
2009,03,23,12,39,5.30
2009,03,23,12,40,5.30
2009,03,23,12,41,5.40
2009,03,23,12,42,5.40
2009,03,23,12,43,5.40
2009,03,23,12,44,5.40
2009,03,23,12,45,5.40
2009,03,23,12,46,5.40
2009,03,23,12,47,5.40
2009,03,23,12,48,5.40
2009,03,23,12,49,5.40
2009,03,23,12,50,5.40
2009,03,23,12,51,5.40
2009,03,23,12,52,5.40
2009,03,23,12,53,5.40
2009,03,23,12,54,5.40
2009,03,23,12,55,5.40
2009,03,23,12,56,5.50
2009,03,23,12,57,5.50
2009,03,23,12,58,5.60
2009,03,23,12,59,5.60
2009,03,23,13,00,5.60
2009,03,23,13,01,5.60
2009,03,23,13,02,5.60
2009,03,23,13,03,5.60
2009,03,23,13,04,5.60
2009,03,23,13,05,5.60
2009,03,23,13,06,5.60
2009,03,23,13,07,5.60
2009,03,23,13,08,5.60
2009,03,23,13,09,5.50
2009,03,23,13,10,5.50
2009,03,23,13,11,5.50
2009,03,23,13,12,5.50
2009,03,23,13,13,5.50
2009,03,23,13,14,5.50
2009,03,23,13,15,5.60
2009,03,23,13,16,5.60
2009,03,23,13,17,5.60
2009,03,23,13,18,5.60
2009,03,23,13,19,5.60
2009,03,23,13,20,5.60
2009,03,23,13,21,5.60
2009,03,23,13,22,5.70
2009,03,23,13,23,5.70
2009,03,23,13,24,5.70
2009,03,23,13,25,5.80
2009,03,23,13,26,5.80
2009,03,23,13,27,5.80
2009,03,23,13,28,5.80
2009,03,23,13,29,5.80
2009,03,23,13,30,5.80
2009,03,23,13,31,5.80
2009,03,23,13,32,5.80
2009,03,23,13,33,5.80
2009,03,23,13,34,5.80
2009,03,23,13,35,5.80
2009,03,23,13,36,5.80
2009,03,23,13,37,5.80
2009,03,23,13,38,5.80
2009,03,23,13,39,5.80
2009,03,23,13,40,5.80
2009,03,23,13,41,5.80
2009,03,23,13,42,5.80
2009,03,23,13,43,5.80
2009,03,23,13,44,5.80
2009,03,23,13,45,5.90
2009,03,23,13,46,5.90
2009,03,23,13,47,5.90
2009,03,23,13,48,5.90
2009,03,23,13,49,5.90
2009,03,23,13,50,5.90
2009,03,23,13,51,5.90
2009,03,23,13,52,6.00
2009,03,23,13,53,6.00
2009,03,23,13,54,6.00
2009,03,23,13,55,6.10
2009,03,23,13,56,6.10
2009,03,23,13,57,6.10
2009,03,23,13,58,6.10
2009,03,23,13,59,6.10
2009,03,23,14,00,6.10
2009,03,23,14,01,6.00
2009,03,23,14,02,6.00
2009,03,23,14,03,6.00
2009,03,23,14,04,6.00
2009,03,23,14,05,6.00
2009,03,23,14,06,6.00
2009,03,23,14,07,6.00
2009,03,23,14,08,6.00
2009,03,23,14,09,6.10
2009,03,23,14,10,6.10
2009,03,23,14,11,6.20
2009,03,23,14,12,6.20
2009,03,23,14,13,6.20
2009,03,23,14,14,6.30
2009,03,23,14,15,6.30
2009,03,23,14,16,6.30
2009,03,23,14,17,6.30
2009,03,23,14,18,6.30
2009,03,23,14,19,6.30
2009,03,23,14,20,6.30
2009,03,23,14,21,6.30
2009,03,23,14,22,6.40
2009,03,23,14,23,6.40
2009,03,23,14,24,6.40
2009,03,23,14,25,6.40
2009,03,23,14,26,6.40
2009,03,23,14,27,6.40
2009,03,23,14,28,6.40
2009,03,23,14,29,6.40
2009,03,23,14,30,6.40
2009,03,23,14,31,6.40
2009,03,23,14,32,6.50
2009,03,23,14,33,6.50
2009,03,23,14,34,6.50
2009,03,23,14,35,6.50
2009,03,23,14,36,6.50
2009,03,23,14,37,6.40
2009,03,23,14,38,6.40
2009,03,23,14,39,6.40
2009,03,23,14,40,6.50
2009,03,23,14,41,6.50
2009,03,23,14,42,6.60
2009,03,23,14,43,6.60
2009,03,23,14,44,6.60
2009,03,23,14,45,6.50
2009,03,23,14,46,6.50
2009,03,23,14,47,6.40
2009,03,23,14,48,6.40
2009,03,23,14,49,6.50
2009,03,23,14,50,6.50
2009,03,23,14,51,6.50
2009,03,23,14,52,6.40
2009,03,23,14,53,6.40
2009,03,23,14,54,6.40
2009,03,23,14,55,6.40
2009,03,23,14,56,6.40
2009,03,23,14,57,6.40
2009,03,23,14,58,6.40
2009,03,23,14,59,6.40
2009,03,23,15,00,6.40
2009,03,23,15,01,6.50
2009,03,23,15,02,6.50
2009,03,23,15,03,6.50
2009,03,23,15,04,6.50
2009,03,23,15,05,6.50
2009,03,23,15,06,6.40
2009,03,23,15,07,6.50
2009,03,23,15,08,6.50
2009,03,23,15,09,6.50
2009,03,23,15,10,6.60
2009,03,23,15,11,6.60
2009,03,23,15,12,6.60
2009,03,23,15,13,6.50
2009,03,23,15,14,6.50
2009,03,23,15,15,6.60
2009,03,23,15,16,6.60
2009,03,23,15,17,6.70
2009,03,23,15,18,6.70
2009,03,23,15,19,6.70
2009,03,23,15,20,6.60
2009,03,23,15,21,6.50
2009,03,23,15,22,6.40
2009,03,23,15,23,6.40
2009,03,23,15,24,6.40
2009,03,23,15,25,6.40
2009,03,23,15,26,6.40
2009,03,23,15,27,6.40
2009,03,23,15,28,6.40
2009,03,23,15,29,6.30
2009,03,23,15,30,6.30
2009,03,23,15,31,6.30
2009,03,23,15,32,6.30
2009,03,23,15,33,6.30
2009,03,23,15,34,6.20
2009,03,23,15,35,6.20
2009,03,23,15,36,6.20
2009,03,23,15,37,6.20
2009,03,23,15,38,6.20
2009,03,23,15,39,6.20
2009,03,23,15,40,6.20
2009,03,23,15,41,6.10
2009,03,23,15,42,6.10
2009,03,23,15,43,6.10
2009,03,23,15,44,6.10
2009,03,23,15,45,6.20
2009,03,23,15,46,6.10
2009,03,23,15,47,6.10
2009,03,23,15,48,6.10
2009,03,23,15,49,6.10
2009,03,23,15,50,6.10
2009,03,23,15,51,6.10
2009,03,23,15,52,6.10
2009,03,23,15,53,6.10
2009,03,23,15,54,6.10
2009,03,23,15,55,6.10
2009,03,23,15,56,6.10
2009,03,23,15,57,6.10
2009,03,23,15,58,6.10
2009,03,23,15,59,6.20
2009,03,23,16,00,6.20
2009,03,23,16,01,6.10
2009,03,23,16,02,6.10
2009,03,23,16,03,6.10
2009,03,23,16,04,6.10
2009,03,23,16,05,6.10
2009,03,23,16,06,6.10
2009,03,23,16,07,6.10
2009,03,23,16,08,6.10
2009,03,23,16,09,6.10
2009,03,23,16,10,6.10
2009,03,23,16,11,6.10
2009,03,23,16,12,6.10
2009,03,23,16,13,6.10
2009,03,23,16,14,6.10
2009,03,23,16,15,6.10
2009,03,23,16,16,6.10
2009,03,23,16,17,6.10
2009,03,23,16,18,6.10
2009,03,23,16,19,6.00
2009,03,23,16,20,6.00
2009,03,23,16,21,5.90
2009,03,23,16,22,5.90
2009,03,23,16,23,5.90
2009,03,23,16,24,5.90
2009,03,23,16,25,5.90
2009,03,23,16,26,5.90
2009,03,23,16,27,5.80
2009,03,23,16,28,5.80
2009,03,23,16,29,5.90
2009,03,23,16,30,5.90
2009,03,23,16,31,5.90
2009,03,23,16,32,5.90
2009,03,23,16,33,5.90
2009,03,23,16,34,5.90
2009,03,23,16,35,5.90
2009,03,23,16,36,5.90
2009,03,23,16,37,5.80
2009,03,23,16,38,5.80
2009,03,23,16,39,5.80
2009,03,23,16,40,5.80
2009,03,23,16,41,5.80
2009,03,23,16,42,5.80
2009,03,23,16,43,5.80
2009,03,23,16,44,5.80
2009,03,23,16,45,5.80
2009,03,23,16,46,5.80
2009,03,23,16,47,5.80
2009,03,23,16,48,5.80
2009,03,23,16,49,5.80
2009,03,23,16,50,5.80
2009,03,23,16,51,5.80
2009,03,23,16,52,5.80
2009,03,23,16,53,5.70
2009,03,23,16,54,5.70
2009,03,23,16,55,5.70
2009,03,23,16,56,5.70
2009,03,23,16,57,5.70
2009,03,23,16,58,5.70
2009,03,23,16,59,5.70
2009,03,23,17,00,5.70
2009,03,23,17,01,5.70
2009,03,23,17,02,5.70
2009,03,23,17,03,5.70
2009,03,23,17,04,5.70
2009,03,23,17,05,5.70
2009,03,23,17,06,5.70
2009,03,23,17,07,5.70
2009,03,23,17,08,5.70
2009,03,23,17,09,5.70
2009,03,23,17,10,5.70
2009,03,23,17,11,5.70
2009,03,23,17,12,5.70
2009,03,23,17,13,5.70
2009,03,23,17,14,5.70
2009,03,23,17,15,5.70
2009,03,23,17,16,5.70
2009,03,23,17,17,5.80
2009,03,23,17,18,5.70
2009,03,23,17,19,5.70
2009,03,23,17,20,5.70
2009,03,23,17,21,5.70
2009,03,23,17,22,5.70
2009,03,23,17,23,5.70
2009,03,23,17,24,5.70
2009,03,23,17,25,5.60
2009,03,23,17,26,5.60
2009,03,23,17,27,5.60
2009,03,23,17,28,5.60
2009,03,23,17,29,5.60
2009,03,23,17,30,5.60
2009,03,23,17,31,5.60
2009,03,23,17,32,5.60
2009,03,23,17,33,5.60
2009,03,23,17,34,5.60
2009,03,23,17,35,5.60
2009,03,23,17,36,5.60
2009,03,23,17,37,5.60
2009,03,23,17,38,5.60
2009,03,23,17,39,5.60
2009,03,23,17,40,5.60
2009,03,23,17,41,5.60
2009,03,23,17,42,5.60
2009,03,23,17,43,5.60
2009,03,23,17,44,5.60
2009,03,23,17,45,5.60
2009,03,23,17,46,5.60
2009,03,23,17,47,5.60
2009,03,23,17,48,5.60
2009,03,23,17,49,5.60
2009,03,23,17,50,5.60
2009,03,23,17,51,5.60
2009,03,23,17,52,5.60
2009,03,23,17,53,5.60
2009,03,23,17,54,5.60
2009,03,23,17,55,5.60
2009,03,23,17,56,5.60
2009,03,23,17,57,5.50
2009,03,23,17,58,5.50
2009,03,23,17,59,5.50
2009,03,23,18,00,5.50
2009,03,23,18,01,5.50
2009,03,23,18,02,5.60
2009,03,23,18,03,5.50
2009,03,23,18,04,5.60
2009,03,23,18,05,5.50
2009,03,23,18,06,5.60